Location: Wawayanda State Park
(41.1833°N, 74.4333°W)
Time: 06:47:27
(UTC-04:00)

Landsat 7 - Visible Passes

Search period start: 23 May 2017 00:00
Search period end: 02 June 2017 00:00
Orbit: 701 x 703 km, 98.2° (Epoch: 22 May)

Date Brightness Start Highest point End Pass type
(mag) Time Alt. Az. Time Alt. Az. Time Alt. Az.
23 May 4.0 22:21:40 37° SE 22:23:18 56° ENE 22:27:58 10° N visible
24 May 6.0 00:00:33 14° WSW 00:01:23 15° W 00:04:06 10° NW visible
24 May 5.6 21:26:00 11° E 21:28:45 17° ENE 21:31:49 10° NNE visible
24 May 4.3 23:04:53 42° SW 23:06:03 53° W 23:10:43 10° NNW visible
25 May 4.4 22:09:13 28° ESE 22:11:08 42° ENE 22:15:38 10° N visible
25 May 5.7 23:48:06 19° WSW 23:49:03 20° W 23:52:32 10° NW visible
26 May 5.9 21:14:26 10° E 21:16:41 13° ENE 21:18:55 10° NNE visible
26 May 3.9 22:52:25 45° S 22:53:48 72° WSW 22:58:35 10° NNW visible
27 May 4.8 21:56:45 21° ESE 21:59:00 32° ENE 22:03:14 10° N visible
27 May 5.3 23:35:39 24° WSW 23:36:45 26° W 23:40:44 10° NW visible
28 May 6.1 21:04:20 10° ENE 21:04:39 10° ENE 21:04:58 10° NE visible
28 May 3.7 22:39:59 42° SSE 22:41:36 86° ENE 22:46:23 10° NNW visible
29 May 5.2 21:44:19 16° ESE 21:46:53 25° ENE 21:50:45 10° NNE visible
29 May 4.9 23:23:12 30° SW 23:24:27 34° W 23:28:48 10° NNW visible
30 May 3.9 22:27:32 35° SE 22:29:24 65° ENE 22:34:08 10° N visible
31 May 6.1 00:06:25 12° WSW 00:07:34 13° W 00:09:45 10° WNW visible
31 May 5.5 21:31:52 12° ESE 21:34:47 20° ENE 21:38:10 10° NNE visible
31 May 4.5 23:10:45 35° SW 23:12:11 46° W 23:16:46 10° NNW visible
01 Jun 4.2 22:15:06 28° SE 22:17:14 49° ENE 22:21:49 10° N visible
01 Jun 5.8 23:53:58 16° WSW 23:55:13 17° W 23:58:22 10° NW visible
